Flag for Finland Weather past 2 weeks in Helsinki, Finland

Now
63 °F

Passing clouds.


Feels Like: 63 °F
Forecast: 53 / 62 °F
Wind: 8 mph from South

Location: Helsinki Malmi Airport

Current Time: Sep 20, 2014 at 5:13:23 PM

Latest Report: Sep 20, 2014 at 4:20 PM


Visibility: N/A

Pressure: 29.98 "Hg

Humidity: 68%

Dew point: 52 °F

Location of HelsinkiLocation

Historic Weather in Helsinki — Graph

°F

Helsinki temperature yesterday

Maximum temperature yesterday: 64 °F (at 11:50 AM)
Minimum temperature yesterday: 43 °F (at 12:50 AM)
Average temperature yesterday: 54 °F

Past Weeks' High & Low Weather Summary

 TemperatureHumidityPressure
High68 °F (Sep 5, 3:20 PM)100% (Sep 6, 12:20 AM)30.45 "Hg (Sep 6, 12:20 AM)
Low36 °F (Sep 16, 5:50 AM)49% (Sep 15, 12:20 PM)29.89 "Hg (Sep 9, 7:50 PM)
Average55 °F86%30.21 "Hg
* Reported Sep 5 3:20 PM — Sep 20 3:50 PM, Helsinki, Weather by CustomWeather, © 2014

Note: Actual official high and low records may vary slightly from our data, if they occured in-between our weather recording intervals... More about our weather records

Advertising

Helsinki weather history for previous 24 hours

 ConditionsComfort  
Time TempWeatherWind HumidityBarometerVisibility
3:50 PM
Sep 20
63 °FPassing clouds.8 mph68%29.98 "HgN/A
3:20 PM63 °FPassing clouds.8 mph73%30.01 "HgN/A
2:50 PM63 °FPassing clouds.9 mph73%30.01 "HgN/A
2:20 PM63 °FPassing clouds.9 mph73%30.01 "HgN/A
1:20 PM63 °FPassing clouds.7 mph77%30.01 "HgN/A
12:50 PM63 °FPassing clouds.9 mph77%30.01 "HgN/A
12:20 PM63 °FPassing clouds.9 mph77%30.01 "HgN/A
11:50 AM61 °FSunny.7 mph83%30.04 "Hg10 mi
11:20 AM61 °FSunny.8 mph83%30.04 "Hg10 mi
10:50 AM61 °FPassing clouds.7 mph83%30.04 "HgN/A
10:20 AM61 °FPassing clouds.6 mph83%30.04 "HgN/A
9:50 AM55 °FSunny.No wind100%30.04 "Hg10 mi
9:20 AM50 °FSunny.1 mph100%30.04 "Hg10 mi
8:50 AM46 °FSunny.No wind100%30.04 "Hg10 mi
8:20 AM43 °FSunny.No wind100%30.04 "Hg10 mi
7:50 AM41 °FFog.No wind100%30.04 "Hg1 mi
7:20 AM39 °FFog.No wind100%30.04 "Hg1 mi
6:50 AM41 °FLight fog.No wind100%30.04 "Hg0 mi
6:20 AM41 °FPassing clouds.No wind100%30.07 "Hg0 mi
5:50 AM41 °FDense fog.No wind100%30.07 "Hg0 mi
5:20 AM43 °FFog.No wind100%30.07 "Hg0 mi
4:50 AM43 °FPassing clouds.No wind100%30.07 "Hg0 mi
4:20 AM43 °FLight fog.No wind100%30.07 "Hg0 mi
3:50 AM43 °FPassing clouds.No wind100%30.07 "Hg0 mi
3:20 AM45 °FDense fog.No wind100%30.07 "Hg0 mi
2:50 AM43 °FPassing clouds.No wind100%30.09 "Hg0 mi
2:20 AM45 °FFog.No wind100%30.09 "Hg0 mi
1:50 AM46 °FDense fog.No wind100%30.09 "Hg0 mi
1:20 AM46 °FFog.No wind100%30.09 "Hg1 mi
12:50 AM46 °FFog.No wind100%30.09 "Hg0 mi
12:20 AM46 °FPassing clouds.No wind100%30.09 "Hg0 mi
11:50 PM
Sep 19
48 °FFog.No wind100%30.09 "Hg0 mi
11:20 PM50 °FFog.No wind100%30.09 "Hg1 mi
10:50 PM50 °FPassing clouds.No wind100%30.12 "Hg0 mi
10:20 PM50 °FPassing clouds.No wind100%30.12 "Hg0 mi
9:50 PM52 °FPassing clouds.No wind94%30.12 "Hg0 mi
9:20 PM50 °FPassing clouds.No wind100%30.12 "HgN/A
8:50 PM52 °FFog.No wind94%30.12 "HgN/A
8:20 PM54 °FFog.1 mph94%30.12 "HgN/A
7:50 PM55 °FFog.No wind88%30.12 "HgN/A
7:20 PM59 °FSunny.3 mph77%30.12 "Hg10 mi
6:50 PM61 °FSunny.3 mph72%30.12 "Hg10 mi
6:20 PM63 °FSunny.5 mph68%30.12 "Hg10 mi
5:50 PM64 °FSunny.7 mph64%30.12 "Hg10 mi
5:20 PM63 °FSunny.8 mph68%30.12 "Hg10 mi
Weather by CustomWeather, © 2014

See weather overviewHow to use our weather pages